{"data":{"norad_id":54820,"epoch":"2026-09-19T22:30:20.235744Z","epoch_age_seconds":141891,"freshness":"FRESH","line1":"1 54820U 22177A   26262.93773421  .00000696  00000+0  34810-4 0  9992","line2":"2 54820  43.0064 118.8388 0001557 247.2736 112.7951 15.27575093206631","mean_motion":15.27575093,"eccentricity":0.0001557,"inclination_deg":43.0064,"raan_deg":118.8388,"arg_perigee_deg":247.2736,"mean_anomaly_deg":112.7951,"bstar":3.481e-5,"rev_number":20663,"period_min":94.26705152491,"perigee_km":481.99550043936,"apogee_km":484.13207836518,"semimajor_km":6861.2007894023,"source":"CELESTRAK","updated_at":"2026-09-21T09:00:33.132050Z"}}